EUTELSAT 9B

Last updated on Wed Jul 16 2025 00:02:48 GMT+0000 (Coordinated Universal Time)

1 41310U 16005A 25196.43655667 .00000069 00000+0 00000+0 0 9999 2 41310 0.0338 62.5831 0001265 46.3346 350.7530 1.00270533 34742
UTC large
Height (km)
Speed (km/s)
/
Latitude / Longitude
Inclination (degrees)
Orbital Period (minutes)
Azimuth
Elevation
Range (km)
Doppler Factor

Next 0 passes for location: London (51.5072 / 0.1276)

Sorry there are no passes over London.